Hourly Data Report for October 02, 2017

All times are specified in Local Standard Time (LST). Add 1 hour to adjust for Daylight Saving Time where and when it is observed.

ESTEVAN POINT CS
BRITISH COLUMBIA

49°22'59.914" N
126°32'35.193" W
5.80 m
1032731
71894
WEB

Download Data

Hourly Data (October 2017)
Hourly Data Report for October 2, 2017
Temp Definition
°C
Dew Point Temp Definition
°C
Rel Hum Definition
%
Wind Dir Definition
10's deg

Wind Spd Definition
km/h
Visibility Definition
km
Stn Press Definition
kPa
Hmdx Definition


Wind Chill Definition


Weather Definition


TIME
00:00 9.6 9.6 100 1 19   102.02     LegendNANA
01:00 9.6 9.3 98 35 16   102.01     LegendNANA
02:00 9.2 9.0 98 35 15   102.03     LegendNANA
03:00 9.1 8.4 96 35 11   102.00     LegendNANA
04:00 7.5 LegendMM LegendMM 3 9   102.02     LegendNANA
05:00 7.9 7.9 100 14 2   102.04     LegendNANA
06:00 7.5 LegendMM LegendMM 18 3   102.02     LegendNANA
07:00 8.2 LegendMM LegendMM 20 4   102.04     LegendNANA
08:00 8.9 LegendMM LegendMM 14 10   102.10     LegendNANA
09:00 10.4 LegendMM LegendMM 21 4   102.15     LegendNANA
10:00 12.7 11.8 94 30 4   102.17     LegendNANA
11:00 13.2 11.0 87 27 6   102.19     LegendNANA
12:00 15.1 11.7 81 23 8   102.19     LegendNANA
13:00 15.9 11.9 77 26 8   102.22     LegendNANA
14:00 16.4 14.0 86 29 22   102.25     LegendNANA
15:00 16.0 13.1 83 28 22   102.19     LegendNANA
16:00 15.5 13.7 89 29 20   102.31     LegendNANA
17:00 14.9 13.5 91 32 10   102.35     LegendNANA
18:00 13.6 12.2 91 33 16   102.36     LegendNANA
19:00 11.4 11.4 100 34 21   102.32     LegendNANA
20:00 11.3 10.4 94 33 22   102.40     LegendNANA
21:00 10.0 10.0 100 3 6   102.43     LegendNANA
22:00 9.2 9.2 100 4 6   102.40     LegendNANA
23:00 9.0 LegendMM LegendMM 11 4   102.40     LegendNANA

Notes on Data Quality.

Legend

  • E = Estimated
  • M = Missing
  • NA = Not Available
  • ‡ = Partner data that is not subject to review by the National Climate Archives
Date modified: